This is the latest recevied weather packets stored in our database for station/object KB1FFS. If no packets are shown the sender has not sent any weather packets the latest 10 day(s).
| Time | Temp. | Humidity | Pressure | Rain* | Wind** | Luminosity | Snow |
|---|---|---|---|---|---|---|---|
| 1787672916 | 30.56° C | 51% | 1018.3 hPa | 0 mm | - | 129 W/m² | - |
| 1787672612 | 30° C | 53% | 1018.3 hPa | 0 mm | - | 122 W/m² | - |
| 1787672311 | 30° C | 51% | 1018.4 hPa | 0 mm | - | 103 W/m² | - |
| 1787672006 | 30° C | 51% | 1018.2 hPa | 0 mm | - | 86 W/m² | - |
| 1787671701 | 30° C | 52% | 1018 hPa | 0 mm | - | 79 W/m² | - |
| 1787671401 | 30° C | 52% | 1017.9 hPa | 0 mm | - | 79 W/m² | - |
| 1787671096 | 30° C | 52% | 1017.9 hPa | 0 mm | - | 92 W/m² | - |
| 1787670793 | 29.44° C | 53% | 1018 hPa | 0 mm | - | 97 W/m² | - |
| 1787670492 | 29.44° C | 53% | 1018.1 hPa | 0 mm | - | 82 W/m² | - |
| 1787670187 | 29.44° C | 54% | 1018.2 hPa | 0 mm | - | 64 W/m² | - |
| 1787669886 | 29.44° C | 54% | 1018.3 hPa | 0 mm | - | 60 W/m² | - |
| 1787669581 | 29.44° C | 54% | 1018.3 hPa | 0 mm | - | 67 W/m² | - |
| 1787669277 | 28.89° C | 54% | 1018.3 hPa | 0 mm | - | 77 W/m² | - |
| 1787668972 | 28.89° C | 54% | 1018.3 hPa | 0 mm | - | 78 W/m² | - |
| 1787668668 | 28.89° C | 56% | 1018.3 hPa | 0 mm | - | 75 W/m² | - |
| 1787668364 | 28.89° C | 57% | 1018 hPa | 0 mm | - | 48 W/m² | - |
| 1787668063 | 28.89° C | 57% | 1018.1 hPa | 0 mm | - | 48 W/m² | - |
| 1787667759 | 28.89° C | 57% | 1018.1 hPa | 0 mm | - | 48 W/m² | - |
| 1787667454 | 28.89° C | 57% | 1018 hPa | 0 mm | - | 48 W/m² | - |
| 1787667150 | 28.89° C | 57% | 1018.2 hPa | 0 mm | - | 48 W/m² | - |
| 1787666845 | 28.89° C | 56% | 1018 hPa | 0 mm | - | 46 W/m² | - |
| 1787666540 | 28.89° C | 56% | 1018.1 hPa | 0 mm | - | 47 W/m² | - |
| 1787666235 | 28.89° C | 56% | 1018.2 hPa | 0 mm | - | 37 W/m² | - |
| 1787665931 | 28.89° C | 56% | 1018.2 hPa | 0 mm | - | 37 W/m² | - |
| 1787665626 | 28.89° C | 53% | 1018 hPa | 0 mm | - | 14 W/m² | - |
* Rain latest hour (hover to see other rain measurements)
** Current wind speed in m/s (hover to see current wind gust speed)